Theta_e
291 289 287 286 286 287 288 288 286 284 287 285 282 280 282 282 281 282 283 286 286 288 287 285 285 285 289 291 292 293 290 288 289 291 292 292 292 292 292 292 292 292 294 294 294 295 295 296 296 297 299 302 304 307 310 312 314 316 317 317 318 320 323 326 327 328 328 326 325 326 327 327 328 328 329 329 331 331 331 330 330 328 327 324 320 319
291 287 287 287 289 290 288 284 285 285 284 286 283 283 282 283 284 286 287 285 286 288 284 281 284 287 288 290 291 292 288 290 292 292 292 293 293 293 293 293 293 294 292 292 293 293 291 293 294 294 295 299 302 305 308 311 314 316 317 317 318 318 321 324 326 327 327 328 328 327 327 328 327 326 326 327 329 330 330 330 330 328 328 326 322 320
288 287 288 288 285 285 284 284 283 284 283 281 284 281 283 283 281 284 286 286 286 288 283 281 285 289 290 291 293 292 293 293 293 292 294 293 293 293 293 293 292 291 293 291 293 292 292 293 293 294 295 298 302 303 307 310 311 313 314 316 316 317 319 321 323 325 326 327 326 326 324 327 323 324 325 326 324 325 328 328 328 328 329 328 325 322
286 286 289 286 286 288 285 284 285 284 283 282 282 283 283 282 286 285 284 285 286 285 286 284 285 289 289 287 290 293 292 290 289 290 291 291 293 294 295 293 293 292 293 293 293 293 292 291 291 291 295 298 301 302 304 307 310 312 313 315 316 316 318 320 321 319 323 322 319 318 316 319 325 320 320 323 318 322 324 325 325 326 328 328 326 324
286 288 287 287 287 289 286 286 286 286 285 283 282 281 282 285 284 282 286 283 282 285 282 283 284 286 280 281 283 282 282 284 288 288 289 291 292 293 292 291 292 292 293 293 293 292 291 290 291 293 295 295 300 302 304 307 310 312 313 315 315 316 316 318 317 318 316 314 313 310 311 313 313 313 316 318 317 319 318 319 323 325 325 326 326 326
287 286 286 287 285 285 286 285 284 287 283 285 283 283 283 282 285 284 283 287 277 280 281 282 280 274 276 279 281 284 283 287 285 286 289 289 287 287 290 292 293 292 293 293 293 293 291 290 289 290 293 297 300 302 304 306 309 310 310 311 312 313 313 315 315 316 316 317 316 314 316 315 315 316 315 317 320 318 318 320 319 318 322 325 326 326
285 287 287 288 288 285 285 285 284 286 282 283 286 284 282 283 284 283 283 281 279 280 282 281 281 276 279 281 285 284 283 287 288 286 289 290 288 285 288 290 290 292 292 291 291 292 292 292 290 290 292 296 299 302 301 302 306 308 309 310 311 312 312 312 311 313 314 316 315 316 318 319 318 318 318 320 321 322 320 319 318 320 319 320 321 324
288 287 286 287 286 286 285 284 285 287 284 283 283 282 284 285 285 282 281 282 279 278 282 278 275 277 279 285 282 281 282 285 286 289 289 290 286 285 286 288 289 291 290 290 291 291 291 291 291 293 293 295 298 297 300 302 304 307 308 309 310 310 309 309 310 311 314 316 314 314 315 315 316 317 317 315 315 316 317 318 318 317 317 317 319 319
288 287 286 286 285 284 286 284 286 287 285 283 284 284 284 284 281 280 281 280 279 280 281 277 283 280 277 282 282 281 284 284 287 289 290 289 288 287 287 287 287 288 289 289 291 291 291 291 292 292 293 294 296 298 301 303 304 305 305 306 306 307 307 307 308 310 311 313 314 314 314 313 313 313 309 303 305 309 309 316 316 315 315 315 316 318
289 288 288 289 288 286 284 285 284 288 288 287 283 284 282 282 281 280 278 280 279 279 274 278 281 276 277 280 281 278 284 283 286 288 287 287 287 288 288 288 286 285 285 286 288 290 290 290 292 292 293 294 295 295 297 297 299 301 303 304 305 306 306 305 306 308 309 310 310 312 312 313 312 306 301 300 304 305 304 311 313 314 314 314 314 314
289 290 291 287 287 286 285 285 284 285 287 287 285 287 284 281 280 278 277 276 276 273 275 277 277 278 276 279 282 284 283 283 283 283 284 286 286 287 287 289 290 289 289 288 288 289 290 289 290 290 295 295 295 294 296 297 299 300 302 303 305 304 303 303 305 306 308 308 308 311 311 311 311 306 305 302 301 300 301 308 311 312 313 313 314 313
288 288 290 288 286 284 286 286 286 285 285 287 285 281 284 281 279 277 271 275 272 269 273 276 278 278 275 276 279 282 282 282 285 286 287 286 288 288 288 291 291 290 289 289 289 292 291 293 292 293 294 294 294 294 295 294 295 299 300 301 302 300 301 301 303 304 306 307 307 307 308 308 309 307 306 306 306 303 304 305 308 309 309 310 312 312
286 289 286 289 288 289 286 288 286 287 282 284 283 285 279 272 270 274 269 274 272 270 278 277 278 278 279 282 282 283 285 286 283 286 287 286 287 288 287 288 289 289 289 288 290 289 293 293 293 294 293 293 293 295 294 295 295 296 298 300 302 301 300 301 301 303 304 304 305 306 306 307 306 306 306 306 306 303 304 303 303 303 305 307 308 310
282 282 286 289 290 289 290 287 284 284 283 283 286 280 275 271 267 265 260 262 266 272 276 278 278 278 278 281 287 290 292 288 285 283 285 286 287 289 290 289 288 288 288 289 288 286 287 288 289 290 292 293 292 292 293 294 295 295 297 297 300 300 298 298 299 301 301 303 304 304 305 306 305 305 305 305 305 304 304 303 303 302 303 304 306 308
277 279 285 289 287 289 289 288 290 287 285 286 283 285 281 270 267 266 263 271 271 271 274 274 274 274 275 283 286 286 289 286 286 285 284 284 286 287 287 286 287 288 289 288 288 289 291 290 290 290 290 291 291 292 292 293 294 294 296 297 298 298 297 298 299 299 301 302 302 302 303 304 303 305 304 305 304 304 303 302 302 302 302 302 303 304
283 279 282 286 287 289 290 288 287 286 286 283 281 281 279 279 274 271 266 265 264 269 269 273 276 277 281 282 285 286 284 285 284 285 284 286 285 283 285 286 287 288 289 291 290 291 290 290 289 288 289 290 290 291 291 293 293 295 297 296 297 299 298 298 298 299 300 301 301 300 301 302 302 301 302 302 301 303 303 303 302 302 302 302 302 301
279 280 284 284 286 288 288 287 289 288 284 284 283 278 280 279 279 271 268 270 270 268 272 268 277 281 281 283 286 286 286 289 285 283 284 286 285 283 286 286 286 287 288 291 291 291 291 289 289 289 289 289 290 291 292 293 294 295 295 295 295 295 294 296 297 299 299 299 298 299 300 300 300 301 302 303 303 302 301 301 302 302 302 301 300 300
282 279 284 285 287 288 287 286 286 285 285 284 279 281 282 281 280 277 273 264 262 269 271 270 275 277 275 280 282 282 286 287 287 286 283 283 283 286 288 286 286 288 287 288 289 290 290 290 290 289 289 290 291 291 292 292 293 294 294 295 296 295 296 296 296 297 298 298 298 299 299 300 301 302 302 302 302 300 300 300 300 299 299 300 300 300
284 281 283 284 284 286 285 289 288 287 286 283 281 284 285 279 277 276 271 270 265 265 267 270 272 274 278 281 280 282 284 287 289 289 285 286 286 287 287 286 286 286 286 287 288 290 291 290 290 290 291 290 290 290 290 292 292 293 293 293 294 296 297 297 297 296 296 297 298 299 299 299 300 300 300 300 299 298 299 300 300 300 301 298 298 298
284 279 279 285 285 286 286 286 284 284 287 285 285 284 284 279 272 273 276 270 272 266 263 271 267 279 279 278 279 286 283 285 287 286 287 288 286 287 286 287 287 286 287 287 288 288 289 290 290 290 290 291 291 291 291 291 291 292 293 293 293 293 293 293 294 295 296 296 296 297 296 297 298 298 299 299 299 299 300 301 300 300 298 300 298 298
284 282 275 280 285 286 284 284 284 285 283 282 283 282 285 279 281 279 276 274 274 265 264 266 270 273 277 279 281 285 285 284 285 287 288 289 287 285 286 287 286 286 286 287 287 288 289 289 288 288 288 289 288 287 288 290 290 292 292 292 292 294 295 294 295 295 296 294 295 295 296 296 296 297 297 297 298 299 299 300 299 299 300 295 297 296
282 281 278 281 282 282 282 282 284 287 287 286 285 283 286 280 278 275 276 276 266 271 268 263 273 275 277 280 284 283 284 285 284 284 286 287 285 284 285 284 285 285 285 286 287 288 289 288 289 289 287 286 287 289 290 289 290 290 291 292 292 293 295 295 295 295 294 293 294 294 295 295 294 295 295 296 296 297 298 298 298 297 293 296 297 295
284 280 281 276 282 285 285 286 282 283 285 284 285 285 286 284 280 273 274 273 271 273 270 266 265 280 282 284 283 282 282 282 282 283 285 285 284 284 284 285 284 285 285 286 288 289 290 289 287 287 287 288 288 289 287 287 289 290 290 290 291 292 295 294 294 293 292 293 293 293 293 293 292 292 292 293 294 295 296 296 295 294 295 296 296 294
290 278 279 278 277 279 283 282 284 283 286 287 285 281 284 284 281 279 274 274 279 271 272 271 267 280 285 284 281 281 280 280 281 280 284 284 285 285 286 287 291 291 289 287 286 285 287 285 285 286 288 289 289 289 289 289 289 289 289 290 290 291 293 292 292 291 291 291 291 291 290 292 291 290 291 292 293 293 294 294 294 292 293 295 295 294
282 281 282 270 270 274 277 282 282 284 285 282 282 282 283 280 279 277 275 273 274 275 277 276 270 281 283 281 282 285 283 283 284 283 282 284 285 286 292 292 291 289 286 288 289 288 288 291 292 290 287 287 287 287 287 289 290 289 290 288 289 292 291 290 289 289 289 289 290 290 290 290 289 289 290 291 292 291 291 290 290 289 292 293 293 294
287 281 281 274 275 273 272 274 278 282 283 281 280 282 282 285 281 280 278 273 274 272 276 273 277 284 285 283 286 285 284 288 287 286 285 282 287 293 293 291 289 287 288 287 286 287 291 289 287 287 286 287 286 285 286 287 288 288 288 289 288 289 289 289 286 287 289 288 289 290 288 289 288 288 289 290 290 290 290 289 289 290 290 291 293 293
278 280 283 283 282 279 281 281 284 285 282 282 281 283 283 284 284 283 277 274 278 277 275 280 283 285 284 284 284 286 284 286 288 289 288 289 288 286 285 286 287 287 287 287 286 287 286 287 287 287 286 287 287 287 287 287 287 287 286 286 287 287 287 287 287 287 287 287 287 288 288 288 288 289 289 289 289 289 288 289 289 289 291 290 290 291
276 281 283 283 284 285 285 281 282 287 284 285 284 282 284 284 284 284 282 282 286 277 277 282 284 282 286 284 285 283 284 283 283 285 286 287 288 290 290 287 289 288 287 285 285 287 288 288 286 286 286 286 286 285 284 284 286 286 286 286 287 287 286 286 287 287 286 287 287 287 289 287 287 287 288 288 288 288 288 288 288 289 289 288 290 290
282 280 283 282 283 283 282 280 283 284 285 285 286 285 283 284 283 283 284 287 285 281 281 286 283 283 286 287 288 289 287 288 288 289 288 288 287 286 286 287 288 289 289 288 288 288 286 288 289 287 286 286 286 286 286 286 286 286 285 285 286 285 286 286 287 287 287 287 287 288 288 287 286 286 286 286 287 287 288 288 288 288 288 288 289 289
285 280 281 283 283 284 282 281 282 285 283 283 284 285 285 285 284 286 286 288 287 285 286 287 283 285 289 289 288 290 290 289 287 286 286 287 289 289 286 287 289 290 289 290 290 289 289 288 287 286 285 285 286 286 286 287 286 286 286 287 286 286 286 287 287 286 286 286 286 287 286 286 285 286 286 286 287 287 287 287 287 287 287 288 288 288
287 281 285 281 278 281 283 281 281 282 283 281 281 282 284 285 285 286 287 288 287 286 286 285 284 285 290 289 285 288 289 288 289 287 289 289 287 287 288 290 291 290 290 290 288 288 288 286 286 285 285 286 286 285 286 287 286 286 287 287 287 287 286 286 286 285 285 287 287 286 285 285 286 285 286 287 286 286 287 287 287 286 287 287 288 288
286 280 279 279 278 278 280 280 280 280 280 279 280 281 282 283 282 284 284 286 284 284 285 285 284 285 291 287 288 291 288 287 288 289 289 290 290 290 290 291 291 291 290 290 288 287 287 287 286 287 287 286 286 287 287 287 287 288 289 287 287 286 285 285 285 285 286 286 286 286 286 285 286 286 287 286 287 287 287 286 286 286 287 287 287 287
284 281 280 276 277 278 279 280 278 278 277 275 279 283 284 284 286 286 287 286 288 288 285 283 284 291 293 289 289 289 286 288 288 290 290 291 292 292 291 291 292 290 289 289 288 287 286 286 287 286 287 286 286 286 286 285 287 288 287 287 286 284 285 285 284 285 285 286 285 286 285 285 285 286 286 286 286 286 286 286 286 286 287 287 287 286
283 283 280 281 279 276 278 277 279 278 273 277 287 289 287 285 285 284 284 287 288 289 288 290 291 292 290 287 288 290 288 289 291 292 292 293 293 291 290 290 288 287 287 285 285 284 285 285 285 285 285 285 285 285 284 284 285 285 285 284 284 284 285 285 285 285 285 284 285 285 285 284 285 285 286 286 286 285 285 285 286 287 287 287 286 286
283 283 279 278 279 280 275 280 277 275 277 288 289 289 289 289 288 286 288 288 289 289 289 289 289 290 291 292 291 290 289 288 288 290 289 288 288 289 290 288 285 284 286 285 286 286 286 285 286 287 287 286 285 285 285 287 286 285 285 285 285 284 284 284 284 284 284 284 284 283 283 284 284 285 285 286 285 285 285 286 286 286 287 287 287 287
285 285 282 282 282 281 275 277 275 276 283 286 287 287 288 288 289 287 285 287 288 289 289 289 291 292 293 293 291 288 289 288 286 285 285 286 287 287 286 287 287 286 285 286 286 285 285 285 285 285 285 283 284 285 284 285 284 284 285 284 284 284 284 284 285 285 285 285 285 285 285 284 284 284 284 284 284 284 285 285 286 286 286 286 286 286
288 285 285 283 286 281 282 280 280 285 284 285 286 286 287 286 285 285 282 286 290 290 289 289 290 291 292 293 292 286 286 287 289 289 286 284 284 284 286 285 285 284 284 284 284 284 283 283 285 284 283 284 284 285 285 284 283 283 284 284 284 284 284 284 285 285 284 285 285 285 285 285 285 285 285 285 285 285 285 285 286 285 285 285 286 286
291 287 286 285 283 286 282 281 281 281 278 284 290 287 287 287 289 289 288 286 290 290 291 290 289 291 291 291 289 285 287 288 287 287 285 284 282 284 283 283 283 284 284 284 285 285 285 285 284 283 283 284 284 285 284 283 282 282 283 285 284 284 284 284 286 285 285 285 286 285 285 285 285 285 285 285 285 286 286 285 286 285 285 285 286 286
292 292 287 286 285 285 282 280 280 279 282 287 287 289 286 286 290 287 286 284 289 286 290 290 291 291 291 291 287 286 287 286 287 284 285 283 283 283 284 284 284 284 284 284 284 284 284 284 284 284 284 285 285 285 283 282 282 283 285 284 284 284 284 285 285 285 285 285 285 285 285 284 284 284 284 285 285 285 286 286 286 286 284 285 285 286
287 287 286 284 282 284 283 281 279 283 281 285 285 284 285 286 291 289 280 282 289 284 285 288 290 291 289 287 286 287 288 286 287 284 284 283 283 283 283 284 284 284 284 284 284 283 283 283 285 285 285 285 284 284 283 283 284 283 284 284 283 284 285 285 285 285 285 285 285 284 284 284 284 284 284 284 285 285 285 285 285 286 286 286 285 285
284 284 285 281 283 283 284 282 283 282 285 284 284 285 285 289 291 283 279 286 284 282 282 283 284 282 282 283 286 287 283 283 284 283 282 284 284 284 283 282 282 283 283 284 284 284 284 284 284 284 284 284 284 283 283 282 283 284 284 283 284 284 285 284 284 284 284 284 284 284 284 284 283 284 284 283 284 285 285 284 285 285 285 285 285 285
284 285 284 285 282 281 282 280 281 284 286 286 285 284 286 289 281 281 286 282 282 281 282 283 283 283 282 282 282 283 284 282 281 283 283 283 282 282 283 283 284 284 283 283 284 284 284 284 284 284 284 283 283 283 283 282 283 283 283 283 283 284 284 284 284 284 284 283 283 283 283 283 283 283 283 284 283 283 284 284 283 284 284 284 284 284
284 283 281 281 284 284 282 280 280 276 285 285 287 285 288 285 286 288 285 284 282 281 282 282 282 282 283 283 283 283 283 283 283 282 282 282 282 282 283 283 283 283 283 283 284 284 283 283 284 284 284 285 285 285 284 283 283 283 284 283 284 284 284 283 283 283 283 282 282 282 283 283 283 283 283 283 283 282 282 283 282 283 283 282 282 283
290 283 283 284 286 279 280 278 279 285 286 284 286 286 287 287 287 285 286 284 284 283 282 282 282 281 282 283 283 282 282 282 281 282 282 282 282 282 283 283 283 283 284 284 284 284 284 283 284 284 284 285 285 285 285 284 283 283 283 283 284 283 283 283 282 282 281 281 281 282 282 282 282 282 282 281 281 281 281 282 282 282 282 281 282 282
289 286 286 283 286 284 281 285 285 282 282 283 284 283 285 286 286 286 287 286 285 284 282 283 282 282 282 282 281 281 281 282 282 282 282 282 282 283 283 284 283 283 283 283 283 283 283 283 283 283 283 284 284 284 284 284 283 282 282 283 283 283 283 282 281 280 280 280 280 281 281 282 282 282 281 281 280 280 281 281 281 281 282 279 280 281
283 284 284 284 280 282 284 283 284 283 282 281 282 283 283 284 284 286 286 285 283 284 284 284 283 283 283 283 282 281 282 283 283 283 283 283 283 283 284 283 283 283 282 282 281 281 281 282 282 282 281 281 282 282 283 282 282 281 281 282 282 282 282 281 280 279 279 279 279 280 280 280 281 281 281 281 280 280 280 280 280 280 281 281 280 280
283 281 281 280 281 284 279 284 282 283 283 282 282 281 282 282 283 284 283 284 284 283 284 284 284 284 284 285 284 283 282 282 282 282 282 282 282 282 282 281 281 280 280 279 279 280 280 280 280 279 279 278 280 280 280 280 280 280 280 280 280 280 280 279 278 278 278 277 278 278 279 279 280 280 281 280 279 279 279 279 279 279 280 280 280 280
280 282 282 279 280 281 280 283 284 284 284 283 282 282 282 282 282 283 284 284 284 283 283 283 283 282 283 282 283 282 281 281 280 280 279 280 281 281 280 279 278 277 277 278 278 279 278 278 277 276 276 276 277 277 278 278 278 279 279 278 279 278 277 276 276 276 276 276 276 277 278 278 279 279 280 280 280 280 280 280 279 279 280 280 281 280
281 285 278 282 282 281 281 282 283 285 285 284 281 280 282 282 281 281 280 279 279 280 280 280 280 280 280 279 280 280 279 278 277 278 277 278 279 278 277 276 275 275 275 275 276 276 275 274 273 273 273 273 275 276 276 277 277 277 277 277 277 276 275 274 274 274 273 274 275 276 277 278 278 279 279 279 280 280 280 280 280 280 280 282 282 281
281 281 279 280 275 277 281 282 285 282 282 284 283 282 282 282 280 278 277 277 278 278 279 278 277 277 276 277 277 278 277 276 275 274 274 275 276 275 274 272 273 273 273 274 273 273 272 272 271 271 271 272 273 274 275 276 276 277 277 276 274 273 271 271 270 271 271 273 274 275 276 277 277 278 278 279 279 279 280 280 282 282 280 280 282 283
282 281 280 278 280 277 281 285 288 286 282 282 285 282 280 280 278 277 277 276 276 277 278 278 276 275 275 274 275 275 274 274 272 272 272 273 273 272 271 270 270 271 271 271 270 270 269 269 269 269 269 270 272 273 274 275 275 275 274 273 272 270 269 269 268 269 270 271 272 273 274 275 276 277 278 278 279 279 279 279 280 283 284 284 283 284
Wind_Speed
1 5 7 8 7 6 6 6 4 3 6 5 4 4 3 4 1 3 2 2 1 1 4 4 5 6 13 12 12 13 3 5 6 10 10 9 8 9 9 9 10 9 14 2 4 6 7 8 7 7 6 7 7 7 8 9 11 11 12 11 13 11 10 10 10 9 9 9 7 6 9 7 5 5 5 9 11 10 9 8 10 12 11 10 11 11
3 4 8 5 8 9 6 7 8 8 4 6 5 5 1 1 2 0 1 3 3 1 2 2 4 10 12 12 13 10 6 11 11 12 12 12 11 9 9 11 11 11 5 5 7 7 5 6 6 5 5 5 7 10 10 13 15 14 12 12 12 8 10 11 11 10 9 10 10 9 8 6 5 5 6 7 8 10 8 10 12 12 11 11 12 11
2 9 6 5 3 9 6 4 3 5 5 3 5 3 2 4 3 4 1 2 3 1 5 1 4 10 11 12 13 10 12 9 7 8 9 7 9 10 9 10 9 6 11 6 10 7 6 6 6 5 5 6 9 7 10 11 7 8 9 10 9 9 11 11 11 10 11 9 8 8 5 7 4 5 6 5 4 4 8 9 7 7 10 11 9 10
3 5 9 4 5 7 3 3 7 7 6 6 5 3 6 2 2 3 2 1 3 2 2 1 6 12 8 8 13 14 8 6 5 7 9 7 11 14 14 8 7 9 11 12 9 9 7 6 6 5 6 8 7 6 6 8 11 10 9 10 10 10 10 10 11 11 9 6 4 2 3 4 5 5 4 5 2 4 5 6 6 5 6 9 12 13
6 1 0 7 4 8 5 1 5 5 2 1 3 3 3 2 2 2 0 1 0 1 2 2 5 10 4 5 7 4 3 3 6 5 7 10 11 11 9 8 8 12 10 12 11 8 6 6 7 8 7 4 6 8 9 9 10 9 12 12 11 9 10 9 8 9 5 6 5 4 3 2 2 1 3 4 4 5 5 4 7 8 7 6 5 7
5 1 4 7 4 3 5 3 4 7 2 0 4 5 4 4 5 0 1 1 5 2 4 2 4 4 4 6 9 10 7 8 3 4 9 10 6 5 8 12 9 9 9 11 12 10 5 5 5 5 5 6 7 9 9 7 7 6 6 6 7 6 6 8 8 8 8 8 9 8 7 6 5 7 6 9 10 7 7 8 4 4 6 8 10 8
4 1 2 5 7 4 5 5 4 5 5 3 5 4 3 5 5 5 2 3 1 1 2 2 3 7 7 5 6 5 7 11 10 4 11 8 4 5 8 8 9 9 9 7 8 9 8 8 5 5 6 6 7 8 4 5 6 6 6 7 8 7 6 6 6 8 8 7 8 10 11 11 11 11 10 8 6 7 7 4 6 6 5 5 5 6
2 1 4 4 4 5 5 4 3 8 7 4 1 5 7 7 6 4 5 2 1 1 3 4 3 1 8 10 3 3 4 9 9 12 10 8 5 6 6 7 8 8 6 5 6 7 6 6 5 7 5 6 8 4 4 5 5 7 7 7 7 6 6 6 6 8 9 10 9 9 10 9 10 11 10 7 7 6 5 7 8 6 6 6 6 4
3 3 3 4 1 3 7 4 6 6 7 2 2 4 4 5 4 6 5 4 0 1 7 4 0 1 5 10 3 2 4 5 9 12 12 8 8 8 7 8 8 7 6 5 7 7 6 6 6 6 5 4 4 4 5 6 5 5 5 6 5 6 6 6 8 9 8 9 10 10 9 9 8 7 4 3 3 5 4 6 5 6 5 5 6 6
2 2 4 5 7 7 2 1 2 7 4 1 6 7 7 8 6 4 4 4 1 1 6 3 1 3 8 8 6 1 2 7 10 10 8 8 7 9 9 9 7 6 5 5 8 7 5 4 4 4 3 1 3 2 2 3 4 4 5 6 7 6 6 6 7 8 8 8 7 8 8 10 7 4 2 3 4 4 4 6 6 6 6 6 6 5
1 3 4 3 3 2 4 3 1 2 2 9 4 8 7 8 4 3 6 2 3 1 6 4 3 2 5 7 8 3 5 6 3 4 5 7 6 5 4 5 5 5 5 4 4 4 5 4 4 3 1 1 1 1 3 4 4 4 5 6 6 6 5 6 7 7 8 7 7 8 8 9 8 6 5 4 4 4 4 7 7 7 7 6 6 6
1 1 1 0 3 3 3 5 6 3 4 5 3 4 7 4 6 4 5 5 1 5 4 1 1 0 7 7 6 8 5 4 5 4 7 7 7 7 6 6 6 5 4 4 2 1 1 1 0 1 2 2 2 3 3 4 4 4 4 5 6 4 6 5 6 7 7 7 7 6 6 8 8 7 7 9 9 7 8 8 8 6 5 5 5 5
1 2 1 3 3 6 3 9 5 1 4 5 7 8 7 2 4 2 2 2 5 6 1 2 2 1 12 11 7 8 10 8 5 7 6 5 7 8 7 7 6 6 5 2 2 1 0 1 1 2 1 2 3 4 4 4 4 4 5 6 7 6 5 6 6 7 7 6 7 8 8 8 7 7 7 8 8 6 8 7 7 6 7 5 6 6
4 1 1 2 2 3 4 10 2 1 1 4 9 7 6 2 1 2 3 1 6 5 4 1 0 5 4 7 13 17 17 1 2 5 7 7 6 7 8 8 8 7 5 4 3 2 1 0 1 0 1 1 2 3 4 4 4 4 4 4 6 5 4 4 4 5 5 7 7 7 8 7 6 7 7 7 8 7 7 7 8 8 8 8 10 8
3 4 6 7 2 2 1 2 10 8 9 7 1 8 9 8 6 5 4 5 5 4 2 4 1 7 1 2 0 7 9 6 6 6 5 6 7 7 7 9 9 8 6 3 3 2 1 1 1 0 0 1 1 2 3 3 4 4 4 5 5 5 5 5 6 5 7 7 6 6 6 6 5 7 7 7 7 7 7 7 7 7 7 8 7 8
8 4 3 2 1 1 7 1 3 5 4 0 2 5 5 7 5 1 4 3 1 1 2 1 6 4 5 3 9 6 6 7 6 7 4 8 5 4 6 5 6 5 6 5 3 3 2 2 2 2 1 1 1 2 2 3 3 4 5 5 5 6 6 6 6 6 7 7 5 5 6 7 6 6 6 6 6 6 6 7 8 9 8 8 7 6
4 4 2 7 3 2 1 0 0 2 8 4 4 3 4 2 10 7 1 1 1 3 7 2 8 8 8 7 7 10 6 10 3 5 2 5 4 3 5 5 6 5 6 6 4 3 4 2 0 0 2 2 2 2 3 4 4 4 4 4 4 4 4 5 6 6 6 5 5 6 6 6 6 8 9 10 8 7 6 6 7 7 7 6 6 7
9 4 2 2 2 1 0 1 1 4 2 8 2 7 2 2 5 5 4 2 3 3 7 2 8 6 3 10 5 2 3 7 8 6 4 5 3 3 4 3 4 6 5 6 6 4 4 4 4 2 2 3 3 2 1 2 2 3 3 4 4 4 6 5 6 7 7 7 7 6 7 7 8 8 8 7 6 5 5 6 6 5 6 7 7 7
6 2 1 1 0 5 2 0 3 2 2 3 3 3 6 3 1 2 4 1 1 2 5 4 3 6 8 10 4 3 1 6 9 8 4 5 4 5 2 3 6 5 6 5 4 4 4 3 3 3 3 2 1 1 1 1 1 2 2 3 4 5 6 6 6 5 5 6 6 6 7 7 7 6 5 5 5 4 6 8 7 8 8 5 6 7
1 4 2 1 1 2 2 4 9 3 3 1 3 4 1 3 2 4 6 3 5 4 2 8 3 8 6 6 7 11 8 7 7 6 7 7 5 1 1 2 4 4 4 4 3 3 4 4 4 4 4 1 0 0 1 1 1 2 3 3 4 3 3 3 5 6 7 6 6 6 5 5 5 5 6 6 6 7 9 9 7 8 7 9 6 7
3 1 3 2 3 1 3 4 8 9 9 2 3 1 0 2 2 4 1 3 4 5 5 2 6 6 6 7 6 9 7 7 7 6 6 7 4 2 1 3 5 5 5 5 4 4 4 4 4 3 3 1 1 1 1 1 2 3 1 3 4 5 5 6 6 6 6 5 6 5 6 5 5 6 6 6 7 8 9 8 7 8 8 4 8 6
3 2 7 2 2 4 5 2 2 8 6 8 10 10 11 9 4 4 7 3 2 3 4 3 10 6 6 3 8 6 7 7 5 2 6 8 4 3 6 6 8 5 5 4 4 4 5 4 1 1 0 1 2 1 0 1 1 2 3 4 4 4 6 6 7 5 4 4 4 5 4 5 5 5 5 6 6 8 8 7 7 7 5 7 7 6
5 3 8 3 7 8 2 0 2 1 0 3 5 8 7 4 6 5 7 5 3 0 5 2 1 12 4 7 7 5 1 2 2 4 7 6 7 5 4 7 7 5 2 1 2 4 5 1 3 2 2 2 1 1 1 1 1 2 3 4 4 4 7 3 4 4 4 4 4 4 4 4 5 4 5 6 6 7 8 7 7 5 7 8 7 6
5 4 4 1 3 3 3 2 2 0 1 1 4 1 5 8 5 5 2 6 8 2 1 1 1 10 1 0 3 4 5 5 5 4 7 5 5 7 5 3 0 1 1 3 3 2 3 3 2 3 3 3 3 4 4 3 2 2 3 3 2 5 5 3 4 4 4 3 4 4 4 5 4 4 5 6 7 7 7 7 6 5 7 8 6 8
5 3 8 2 2 3 4 2 2 2 0 4 3 3 2 4 5 2 5 1 1 8 7 8 7 13 1 3 1 0 3 3 2 2 5 4 3 2 0 1 0 1 1 2 3 4 3 2 3 2 1 2 3 4 4 4 5 4 5 3 3 5 4 5 5 4 4 4 5 5 5 5 4 4 6 7 6 8 7 6 6 5 7 7 8 9
6 5 9 8 11 9 8 8 14 15 12 1 0 2 5 8 7 5 4 1 4 3 9 6 9 10 1 3 2 1 2 2 1 1 1 5 2 1 0 1 1 1 1 1 2 3 2 3 3 2 2 2 2 2 3 4 4 5 4 5 4 5 5 6 4 4 4 4 5 5 5 4 3 5 6 7 7 8 6 6 6 6 7 7 9 8
3 2 7 10 14 15 15 7 2 11 5 6 5 8 6 6 8 5 6 5 10 6 7 9 10 17 7 1 2 2 1 2 2 1 1 3 3 3 4 4 4 5 3 2 2 5 5 3 2 2 2 2 3 3 4 4 5 5 4 4 4 6 6 5 3 3 3 4 4 4 4 4 4 5 6 6 7 5 5 6 6 6 8 7 8 8
3 4 8 10 13 14 9 3 5 8 9 11 11 10 11 11 11 11 11 14 14 4 9 12 16 11 20 5 4 4 4 4 4 5 3 4 4 4 4 4 5 5 6 3 3 3 3 2 3 4 3 1 2 2 2 3 4 4 3 2 2 3 3 3 3 3 3 3 3 3 5 4 4 5 6 5 5 5 5 5 6 7 7 6 7 8
6 7 7 6 10 10 4 4 7 4 8 10 14 14 13 14 13 15 16 19 9 11 19 17 6 10 21 9 10 9 6 6 7 7 5 3 4 5 5 4 5 6 6 5 4 2 2 2 2 4 4 4 4 4 4 4 4 3 3 2 3 3 3 1 1 2 1 1 2 4 4 4 4 4 4 4 4 5 6 6 6 6 6 6 7 7
4 5 6 6 10 10 6 6 5 9 4 2 7 11 15 15 17 20 20 20 19 16 16 13 8 17 19 9 10 11 7 7 3 1 1 2 7 6 3 5 6 7 6 7 6 3 5 5 4 4 4 3 2 2 3 4 3 2 1 1 1 2 3 1 1 2 3 3 4 4 3 4 4 4 4 4 5 5 5 6 6 6 6 7 7 7
5 6 7 4 4 7 8 5 4 6 6 6 5 5 9 14 17 20 20 20 16 13 10 9 11 16 16 6 3 6 7 4 0 3 6 5 4 5 6 8 8 7 7 7 5 3 4 4 5 4 3 1 1 1 2 4 3 2 1 3 4 5 5 4 4 3 3 5 4 4 4 4 4 4 4 4 4 5 5 6 5 5 6 7 7 7
3 4 2 3 5 5 4 7 7 2 1 2 5 5 9 13 14 13 13 8 5 9 12 13 14 17 19 5 6 12 4 4 7 8 7 8 10 10 11 13 10 9 8 6 3 3 3 5 4 1 1 2 2 1 1 2 3 5 8 6 7 6 5 5 4 4 4 4 5 4 4 5 5 5 6 5 5 5 6 5 5 6 7 7 7 7
5 5 4 4 5 7 2 6 7 6 2 3 10 15 18 14 11 8 8 6 11 14 13 11 16 17 18 4 6 6 5 8 9 10 10 12 13 11 10 11 11 7 6 5 3 2 1 1 1 1 1 1 2 4 5 4 6 8 7 7 6 5 4 4 4 4 4 5 5 5 4 4 5 6 6 6 6 6 6 5 6 7 7 9 7 5
3 4 4 3 5 4 1 7 5 7 6 12 10 16 14 15 15 12 8 15 19 13 11 16 16 14 10 2 8 10 10 9 11 10 8 9 10 10 10 8 6 5 5 4 4 3 2 2 1 1 1 3 4 4 4 4 5 5 5 5 5 5 5 4 4 3 4 4 4 4 5 5 5 5 6 6 6 5 6 6 7 7 7 6 6 6
4 4 3 2 3 4 3 7 5 10 12 8 4 5 13 16 12 16 19 19 15 14 12 11 12 14 16 15 11 6 3 4 5 6 5 3 4 6 6 5 4 3 2 1 3 3 2 3 4 5 8 9 7 6 7 8 7 6 6 6 6 4 5 4 4 4 4 4 4 3 4 4 4 5 6 6 6 6 6 7 7 7 8 7 7 8
6 7 4 1 3 3 3 4 7 9 4 3 4 4 2 7 11 10 11 13 13 14 14 17 20 21 19 16 9 3 3 2 2 1 0 1 0 2 3 1 1 2 3 1 2 4 4 4 5 6 5 4 5 6 5 6 6 6 6 5 4 5 4 5 5 5 5 6 6 5 5 4 5 5 5 6 5 5 7 6 7 8 7 7 7 7
6 3 3 3 4 9 7 8 11 5 10 4 4 4 7 7 8 10 11 14 17 16 14 15 17 18 17 15 8 1 0 0 3 4 2 3 4 5 5 4 3 4 3 3 3 4 4 4 5 4 3 4 4 6 6 5 4 4 4 4 4 4 5 4 4 4 4 5 5 5 5 4 6 6 6 5 6 6 6 6 7 6 5 7 7 8
7 8 4 7 5 6 9 10 5 5 12 13 13 2 1 4 7 8 9 11 7 9 12 14 16 17 16 13 7 4 2 3 10 7 2 4 4 5 4 4 4 4 4 4 5 7 8 6 5 4 4 4 5 5 4 4 4 4 4 5 5 5 4 4 6 5 5 5 6 6 6 6 6 7 8 8 8 9 8 6 6 5 4 6 8 8
6 6 4 10 4 7 8 10 11 10 11 6 1 3 1 0 6 6 6 12 4 2 9 12 14 14 14 14 6 7 5 8 12 1 1 4 4 4 6 5 5 5 5 6 6 7 7 7 4 2 4 5 8 7 5 4 4 4 6 6 6 5 5 7 7 8 8 9 8 7 6 6 6 6 7 8 9 8 10 9 8 8 5 6 7 9
9 7 5 8 7 5 8 11 12 5 4 1 1 2 1 3 9 7 6 7 2 5 4 3 12 15 7 0 5 7 9 10 10 3 1 3 4 4 5 6 8 8 8 6 6 4 4 4 6 9 9 10 8 6 7 6 6 6 6 7 5 6 8 8 8 7 7 7 7 7 7 6 7 7 7 9 10 9 8 7 9 9 8 8 6 8
9 4 8 13 9 11 10 5 1 5 3 4 3 1 1 2 2 6 11 4 1 3 4 1 1 5 0 3 5 7 2 1 4 4 3 2 6 8 6 4 4 4 6 7 7 6 6 6 6 6 5 6 6 6 6 6 7 8 8 7 7 8 8 8 8 8 8 8 8 8 8 7 5 9 9 6 8 9 8 7 8 9 8 9 9 8
8 6 3 6 9 8 7 8 8 3 5 4 0 6 4 3 3 11 1 1 2 3 4 5 6 5 5 5 3 6 6 3 3 4 6 7 6 4 5 4 5 5 4 4 6 8 8 6 7 7 6 5 7 6 6 6 8 7 8 7 8 8 8 8 9 9 9 9 9 9 9 8 8 6 7 8 7 9 10 7 6 7 8 7 8 9
10 8 7 10 5 4 3 6 4 8 4 4 8 3 1 5 6 5 7 2 3 3 5 5 6 4 6 10 7 7 6 6 6 5 5 5 6 7 7 8 9 9 9 10 11 10 9 8 9 8 7 6 6 7 6 7 9 9 8 9 8 8 9 8 9 9 10 10 10 10 10 10 9 9 7 8 7 8 11 9 7 8 7 7 8 9
7 6 4 6 7 5 9 8 7 3 2 2 2 7 5 2 4 5 6 5 0 2 4 6 5 4 6 9 8 7 5 5 4 4 4 5 5 5 5 6 6 7 7 6 6 8 9 8 8 9 9 8 8 8 8 9 10 9 10 10 9 9 9 9 10 10 10 10 10 11 11 11 10 9 7 8 8 8 9 10 8 7 7 6 7 8
5 8 3 7 4 7 4 6 2 1 2 2 1 1 2 1 2 4 6 7 8 2 2 6 6 4 5 8 7 5 5 4 3 3 4 3 4 5 6 5 7 7 7 8 8 9 8 8 9 9 8 8 8 7 7 7 9 10 11 11 12 12 12 12 11 11 11 11 11 11 10 11 10 9 8 7 6 8 10 10 7 9 8 5 7 7
3 2 1 4 2 0 2 1 1 2 2 1 3 1 3 4 3 5 11 8 2 4 4 9 7 7 6 6 9 4 4 1 3 3 3 3 3 3 2 3 4 5 6 7 8 10 9 9 9 9 11 11 10 10 9 9 9 10 11 11 11 11 11 11 11 11 10 10 10 10 10 12 13 10 8 9 7 7 8 9 9 9 10 8 7 8
2 1 2 2 2 5 4 4 3 6 3 2 3 2 3 2 2 1 3 7 8 7 7 6 8 7 7 6 9 9 5 2 4 4 4 5 5 6 6 7 8 9 10 10 10 10 10 10 10 11 12 12 10 10 10 9 8 8 9 10 10 10 10 10 11 12 11 11 12 11 10 11 10 11 11 8 7 7 7 7 8 9 10 9 8 8
3 3 2 1 3 6 2 5 4 2 1 1 2 6 5 4 4 4 4 5 7 5 5 5 4 6 3 7 6 8 7 4 4 3 3 3 4 4 4 6 7 7 7 8 8 8 8 8 9 10 11 10 11 9 9 9 9 9 10 9 9 9 10 10 11 12 12 13 11 10 10 10 12 12 10 10 8 9 10 8 7 8 10 11 9 8
2 6 4 5 5 1 4 2 4 4 1 3 1 2 1 4 7 8 7 7 6 7 6 5 4 4 5 6 5 7 7 4 4 3 2 1 1 2 4 4 6 6 6 7 7 8 7 8 8 9 9 9 9 8 8 8 8 8 9 8 8 11 12 12 13 13 12 11 10 10 9 9 9 10 10 11 11 9 8 9 10 10 12 12 9 8
4 6 2 4 4 4 9 9 10 5 5 7 9 9 7 6 7 8 6 7 7 8 6 8 6 5 6 5 4 4 7 6 4 2 2 1 1 2 3 4 5 6 6 6 6 7 7 7 7 9 9 8 7 8 8 7 7 8 7 10 10 12 13 14 13 13 12 11 10 10 10 10 10 10 10 11 11 12 14 11 12 12 12 14 14 14
8 6 6 6 8 7 5 8 15 7 1 3 9 9 7 6 8 10 10 8 5 4 4 7 9 7 5 4 4 5 5 5 3 1 1 2 2 3 2 3 4 4 5 6 6 6 7 7 7 7 8 8 8 8 8 8 9 10 10 10 10 10 10 11 12 11 11 11 10 12 12 12 11 11 10 11 11 11 12 14 15 14 17 19 21 20
Wind_Direction
101 141 181 196 194 189 205 185 164 179 154 109 78 103 175 174 280 280 275 282 337 99 249 262 278 275 276 272 276 280 301 301 285 280 269 261 263 260 257 250 249 246 244 266 233 236 231 231 226 223 208 209 200 201 196 198 203 202 200 190 203 199 193 193 197 198 196 197 198 202 201 204 182 196 204 196 192 195 203 203 199 199 201 197 194 191
68 165 230 200 195 192 172 118 109 73 55 137 142 154 207 204 166 189 101 344 328 140 287 28 328 273 265 276 273 278 304 276 260 262 265 263 255 255 253 258 250 253 295 289 283 260 258 250 245 232 216 195 194 212 197 199 203 201 195 196 202 183 192 197 197 197 198 201 204 198 203 196 181 188 201 211 207 201 203 213 206 197 194 191 194 194
172 208 226 202 125 93 92 88 69 119 111 60 145 161 111 257 246 287 303 340 334 103 266 20 338 278 269 269 271 259 254 248 236 225 245 254 269 264 258 252 262 281 270 265 253 265 251 251 251 231 223 217 214 207 201 210 199 194 196 203 194 189 190 198 196 193 202 202 201 196 194 189 192 200 199 204 197 201 198 193 205 201 188 188 194 195
200 280 236 165 139 102 60 72 93 73 68 110 99 116 202 245 138 249 282 340 359 75 309 325 320 285 276 272 265 262 250 264 257 252 254 231 249 255 255 259 267 264 265 266 254 256 249 239 246 241 232 222 212 214 204 201 199 194 198 198 193 192 194 194 196 198 203 190 162 156 153 189 186 186 187 196 202 199 204 209 191 199 219 208 190 186
186 231 321 135 145 140 140 106 120 115 150 2 127 135 131 159 223 149 166 324 341 56 60 353 304 294 336 313 316 310 322 298 276 298 274 257 239 256 283 291 246 253 256 265 275 263 253 253 241 224 227 206 209 213 209 200 198 195 198 198 192 189 192 194 188 189 160 128 118 108 65 69 87 34 155 179 208 205 209 212 198 211 195 210 228 208
261 284 134 106 93 86 115 148 204 133 183 320 224 172 189 177 138 261 359 100 21 344 358 54 329 307 301 288 253 281 342 324 280 322 278 263 263 248 253 254 265 252 245 245 253 259 247 236 256 255 230 207 214 216 215 201 200 190 193 185 185 183 183 189 185 174 160 169 164 159 163 176 191 206 197 208 208 200 203 210 209 201 213 216 203 188
200 29 126 159 144 131 134 172 219 147 160 123 254 166 159 144 123 120 99 76 353 163 347 27 177 272 318 285 284 321 333 303 307 270 270 281 265 246 247 252 248 243 253 245 259 269 272 263 255 255 225 216 214 227 196 191 192 188 180 181 182 184 183 176 170 166 166 170 177 185 193 197 200 208 218 216 212 209 210 202 201 209 205 225 236 220
96 60 76 80 96 121 133 197 231 146 127 216 248 125 111 112 131 160 105 112 188 248 297 45 100 243 310 284 245 322 312 303 309 295 296 287 305 271 253 251 250 252 252 247 251 259 257 264 241 248 228 212 220 207 182 188 183 184 181 174 180 176 171 173 163 170 178 182 186 192 202 205 210 212 217 196 207 204 190 202 212 210 216 214 216 224
129 164 148 135 104 123 178 209 177 149 136 225 198 140 128 139 140 114 91 101 93 40 279 338 335 289 251 266 313 359 328 302 285 279 276 298 298 293 289 273 262 254 245 231 241 245 245 249 253 246 247 233 205 190 185 190 184 168 159 160 157 168 167 171 172 175 188 191 190 195 198 210 220 217 216 169 175 195 202 211 208 213 216 216 221 223
355 158 216 157 146 191 231 324 152 153 118 221 129 95 94 81 70 92 103 81 345 75 268 232 213 208 277 275 310 333 236 263 255 259 277 273 283 298 303 305 292 284 266 244 245 256 261 256 259 246 237 209 200 198 168 149 143 147 145 153 161 173 174 170 175 182 189 194 187 196 205 215 217 204 187 146 185 199 194 214 211 213 213 214 220 222
241 321 177 94 186 188 128 45 107 11 110 132 120 78 42 40 28 30 64 89 59 325 253 248 319 156 296 263 233 183 219 203 254 302 280 291 301 300 293 295 305 307 307 295 267 252 258 264 264 293 178 169 69 75 118 126 139 141 148 154 166 175 164 168 179 181 191 193 193 204 206 212 216 204 195 194 210 201 205 216 218 214 219 213 219 214
20 0 102 263 86 116 103 75 21 68 100 125 104 129 80 1 11 30 346 34 124 269 264 272 235 52 193 290 279 240 277 234 206 251 283 300 305 303 314 323 326 320 308 303 325 340 25 103 36 111 114 102 107 90 98 114 122 140 147 151 157 165 173 176 178 183 192 190 202 209 207 213 215 202 199 208 213 201 209 210 217 220 228 228 224 217
0 118 235 347 200 127 125 87 2 16 350 83 93 84 112 229 37 284 11 260 217 207 247 340 182 350 240 233 264 283 269 263 221 221 234 256 288 301 304 311 317 306 315 318 330 329 18 125 169 152 141 104 129 141 136 146 146 148 152 162 165 184 182 184 180 189 191 192 202 202 207 215 209 208 208 213 218 203 210 208 216 209 221 221 230 223
275 280 20 311 62 221 148 129 134 148 293 103 132 137 106 118 76 231 274 266 309 295 269 312 254 262 264 276 239 246 260 167 232 223 240 244 253 281 293 307 311 303 291 285 297 289 279 257 252 267 220 173 151 150 156 155 153 161 163 169 174 187 180 177 180 189 193 207 208 205 210 213 204 214 211 217 215 212 212 205 213 210 213 214 219 219
149 293 253 145 226 156 171 165 177 157 163 204 63 150 177 144 158 206 191 199 216 204 285 279 70 232 103 249 228 226 257 288 278 254 242 252 259 273 287 289 287 290 293 266 280 269 280 296 290 273 263 241 203 181 172 167 168 159 171 171 178 174 181 178 190 189 204 211 213 213 216 216 210 217 216 220 215 213 212 210 215 220 216 219 221 216
209 214 273 299 260 142 168 251 114 98 43 326 159 76 94 217 136 132 207 142 207 345 5 227 217 194 180 274 289 245 269 285 265 274 268 265 261 295 305 293 289 297 296 294 296 311 323 298 306 331 320 280 230 215 191 186 182 179 194 187 191 189 185 186 188 202 205 215 211 214 214 218 216 222 227 235 225 227 215 216 213 221 215 219 218 218
35 236 346 311 55 106 150 180 112 135 175 224 103 202 208 123 97 96 66 17 87 43 256 160 305 283 301 301 271 303 308 283 325 301 308 277 295 332 293 294 297 292 287 290 312 312 306 335 13 234 245 245 225 205 196 202 196 196 187 185 198 203 187 192 199 203 205 211 211 221 219 220 219 220 223 225 227 224 220 224 227 227 228 224 217 217
154 225 346 70 180 7 211 134 107 36 151 97 184 230 186 139 122 127 205 353 67 190 265 86 237 295 31 282 322 347 212 283 293 280 274 286 291 283 262 282 267 272 283 287 284 274 267 269 273 262 230 215 206 197 204 228 214 211 203 197 195 194 200 210 200 205 204 207 214 219 220 223 222 226 232 234 238 227 227 233 233 233 234 223 219 214
119 96 327 0 290 281 351 164 45 9 43 141 197 196 113 220 219 319 91 246 134 265 272 293 277 268 196 250 338 327 186 242 255 271 327 299 281 262 359 278 283 295 296 296 296 310 312 302 295 287 272 274 244 218 216 232 208 221 225 220 212 214 216 209 205 204 211 207 213 215 221 222 229 234 243 245 242 233 231 236 229 227 231 228 215 215
58 145 284 344 133 295 355 96 197 192 348 39 79 90 92 98 155 122 200 173 124 238 61 287 42 251 194 220 196 239 215 226 240 278 275 268 251 251 285 292 278 282 271 265 276 282 288 296 286 267 257 257 248 257 260 229 206 222 219 213 238 265 256 235 211 203 210 209 208 226 226 232 227 230 230 233 230 232 235 238 233 233 231 227 215 218
165 132 195 282 291 98 186 195 219 152 145 80 95 199 212 32 231 109 25 132 177 171 183 243 311 275 264 210 187 225 223 220 210 233 252 267 58 147 203 239 268 272 283 296 304 319 308 286 271 253 243 246 29 37 10 336 239 243 237 226 227 224 240 237 233 216 219 194 211 216 227 229 223 231 227 235 228 235 240 240 235 235 235 225 227 210
102 166 183 126 53 235 237 249 182 164 180 166 164 191 173 133 143 163 251 34 97 117 222 137 255 261 265 187 205 211 228 212 232 244 286 287 257 243 266 259 243 268 270 270 299 287 273 252 262 312 47 85 66 46 33 294 294 290 255 236 231 232 238 235 237 230 226 212 213 218 227 231 228 227 228 233 235 238 244 244 239 239 237 233 236 204
142 131 104 178 205 202 208 1 253 287 60 184 158 221 173 182 107 132 202 233 49 307 100 168 78 271 232 193 208 225 243 249 235 205 252 272 290 280 240 256 270 238 264 282 280 267 250 27 36 1 357 351 338 250 237 276 254 246 246 246 241 238 256 241 262 238 219 220 228 239 234 238 236 226 236 239 243 244 245 244 244 233 233 241 240 223
97 102 114 311 309 318 318 309 38 117 139 306 274 134 156 202 179 168 147 177 161 169 138 325 255 264 347 11 249 235 256 266 263 224 248 287 293 293 309 326 354 42 299 292 280 289 309 342 346 26 23 359 6 0 352 338 295 262 257 255 265 261 279 278 248 232 220 232 246 245 246 246 243 233 241 242 245 248 248 246 248 234 237 244 242 237
154 262 138 115 17 344 345 341 348 346 107 205 195 196 166 80 79 131 96 72 134 213 175 142 229 263 275 318 308 313 336 329 303 265 213 244 290 274 271 236 293 337 332 346 336 322 324 13 32 13 334 352 333 338 341 329 319 308 294 301 272 269 268 250 236 222 221 218 243 250 245 256 244 246 251 251 255 254 255 250 250 240 240 244 246 243
181 169 143 155 182 191 203 197 214 209 200 177 79 103 158 142 141 119 197 81 204 271 147 193 234 246 337 317 346 334 337 336 357 322 281 215 235 233 275 293 288 274 271 295 316 320 331 330 329 334 351 352 325 289 286 286 279 283 281 278 257 261 263 248 232 224 219 222 238 260 258 268 269 256 256 256 258 256 257 256 247 246 245 237 247 250
162 153 189 190 195 209 215 213 43 96 88 190 217 151 187 173 173 150 112 137 212 210 174 233 227 260 248 314 311 289 316 233 269 295 263 265 254 262 268 265 274 293 276 265 284 290 298 307 294 268 215 217 216 230 245 243 249 240 229 243 244 235 238 244 230 233 217 232 236 267 282 277 259 254 255 254 256 261 260 256 252 247 250 240 240 248
87 187 214 206 221 221 220 165 214 144 166 200 176 188 181 173 179 172 180 216 216 173 253 229 228 238 257 177 236 263 268 267 263 278 265 245 258 232 235 268 292 300 284 260 231 243 268 293 306 319 316 262 222 227 244 253 260 274 290 285 257 251 243 237 209 215 219 229 255 265 273 266 257 254 255 256 259 259 258 259 254 248 251 247 245 243
147 196 226 169 240 241 203 174 174 182 184 190 194 182 177 185 181 186 213 224 193 195 226 241 157 224 255 212 206 217 199 208 211 222 217 228 261 278 276 289 290 277 286 299 266 243 262 272 294 312 315 316 337 336 323 320 310 310 303 269 276 281 293 263 201 228 233 287 280 271 270 280 270 261 266 265 268 266 261 255 253 254 251 246 248 246
135 229 211 173 222 241 222 175 191 180 204 195 198 192 187 180 191 199 214 220 216 219 232 246 169 225 241 239 192 228 214 222 228 197 118 206 240 245 302 283 258 262 275 277 284 325 320 321 320 298 298 299 301 310 311 307 295 289 281 310 317 354 342 12 343 357 350 322 282 285 292 287 287 282 279 284 273 266 264 261 259 257 256 253 249 250
154 256 152 143 202 250 242 173 187 200 182 212 234 185 188 196 203 207 214 224 225 242 259 278 277 270 260 220 183 247 239 235 61 225 212 237 295 291 267 259 257 255 260 272 295 293 290 291 266 257 257 266 284 265 270 248 244 238 78 26 16 12 353 9 354 354 331 304 300 312 318 316 306 305 297 283 283 278 275 271 268 266 264 261 256 252
154 249 48 102 183 273 230 162 204 138 96 204 249 213 196 197 212 223 223 225 194 219 232 244 256 256 262 122 202 226 193 171 215 229 240 249 242 239 240 246 254 259 261 256 228 208 226 235 246 269 337 352 340 271 280 324 339 19 16 6 7 354 344 359 357 344 326 304 319 330 327 320 318 319 309 312 295 289 280 281 277 271 266 267 265 256
177 150 146 136 180 241 299 136 127 117 84 292 245 228 212 207 209 221 230 233 218 207 218 221 237 243 256 195 207 244 154 209 214 218 224 232 238 238 244 249 248 260 267 286 295 262 267 313 0 356 357 2 349 355 0 360 15 13 356 352 338 345 357 355 350 336 324 323 332 323 324 325 326 314 311 303 297 292 291 282 280 273 270 265 261 267
120 142 174 170 181 239 194 113 120 106 203 227 223 217 198 203 203 206 207 215 224 195 211 216 232 248 265 227 201 229 201 206 215 228 223 218 234 248 255 263 277 275 293 322 315 315 318 342 9 46 85 45 18 19 351 26 22 349 340 332 333 350 349 3 353 341 311 319 319 315 318 321 316 304 294 295 292 289 284 281 272 271 267 272 273 258
140 150 166 184 142 213 115 116 100 207 235 235 241 131 201 215 205 205 222 224 226 221 232 259 265 262 252 243 235 240 241 242 243 232 243 262 237 239 248 269 270 261 287 340 42 47 46 37 22 23 23 16 8 1 8 2 3 350 350 347 340 342 346 354 346 343 334 326 311 303 293 288 283 278 283 284 284 282 277 272 275 273 269 263 258 255
168 155 155 67 140 58 72 152 222 232 217 302 290 210 203 195 204 203 246 253 245 230 213 227 237 244 250 254 252 191 205 236 287 291 264 311 309 226 218 217 37 84 86 43 71 35 31 25 26 22 11 358 13 9 11 355 342 350 336 333 333 340 352 348 353 348 348 344 336 329 313 298 286 277 274 275 274 271 272 270 265 271 270 263 260 255
150 100 137 201 187 216 202 214 231 8 320 275 278 245 166 176 157 174 227 241 234 229 215 225 237 248 254 257 256 142 238 66 299 286 29 64 51 45 89 89 85 58 61 33 38 28 18 25 27 13 23 18 20 22 7 345 344 337 332 348 352 359 352 358 355 347 334 318 313 312 310 309 308 309 309 304 299 290 284 285 283 273 263 269 263 262
161 177 193 191 230 194 228 250 266 235 248 251 240 255 229 161 162 182 192 259 248 223 211 217 235 243 249 256 246 179 104 281 278 254 42 19 48 76 62 74 68 64 47 34 25 29 23 17 21 22 38 31 31 19 357 342 339 335 347 357 357 6 359 5 357 342 331 323 321 318 321 321 321 318 317 318 315 310 304 290 277 274 261 268 283 278
197 192 186 196 202 168 208 228 230 231 238 232 239 156 345 80 149 133 164 247 257 225 203 201 225 238 240 242 229 120 163 234 253 76 14 33 35 44 59 39 46 43 42 37 36 19 9 6 358 356 30 38 29 3 353 344 344 2 6 360 356 356 3 360 346 343 335 326 320 318 318 317 317 315 313 312 307 309 309 309 305 298 286 273 275 277
178 189 165 212 208 199 198 217 227 216 242 231 248 293 280 166 120 117 197 249 256 341 317 196 208 231 251 318 132 152 180 225 245 151 54 68 76 43 56 39 34 28 25 24 28 23 2 348 18 25 25 23 9 348 354 352 1 9 4 356 350 2 1 349 337 321 315 313 316 315 318 319 318 313 312 307 305 304 298 301 307 305 306 298 284 290
176 171 190 207 206 218 219 244 3 276 272 195 201 184 208 210 113 174 214 219 332 340 348 356 6 16 357 153 151 172 325 49 106 125 74 63 57 34 29 37 41 45 32 22 14 2 17 16 32 31 24 16 0 356 357 359 6 4 356 350 357 359 347 332 323 324 321 319 319 321 319 317 311 308 305 292 293 297 296 297 296 300 303 301 305 300
194 183 206 202 221 215 216 232 237 288 232 172 241 151 192 119 209 228 201 9 107 68 28 62 71 36 58 81 85 97 129 119 97 71 57 46 61 53 34 28 32 36 42 33 23 18 11 7 7 14 25 25 12 1 2 5 6 358 352 351 353 343 333 331 330 326 325 324 323 319 317 315 310 296 293 297 296 298 297 291 281 283 289 291 292 295
178 178 185 195 197 210 189 223 207 231 262 98 138 33 120 185 229 127 125 41 78 105 85 57 68 38 82 86 76 99 98 74 62 65 64 48 42 34 26 25 27 19 11 9 9 12 10 6 3 0 2 2 13 9 4 9 4 353 348 348 339 336 332 329 328 329 328 325 323 321 318 315 311 308 305 298 294 288 290 294 295 287 283 284 288 285
177 165 188 212 175 173 194 206 209 239 94 292 170 188 191 203 135 151 127 113 16 103 102 95 53 73 80 95 96 81 75 86 60 49 59 49 42 28 27 27 23 19 14 17 14 3 3 357 357 350 354 359 6 8 6 7 358 346 342 336 335 333 330 333 333 330 328 325 321 320 318 314 311 305 299 293 293 288 284 291 290 284 279 276 276 280
211 194 174 187 173 172 199 206 218 254 222 283 126 246 146 145 136 162 113 127 135 126 167 101 116 99 103 107 96 108 88 62 93 69 62 41 46 35 28 31 24 16 6 3 1 360 358 355 342 339 343 358 0 4 4 3 354 345 343 339 342 337 337 333 333 330 325 322 318 315 312 309 305 302 297 289 283 292 293 294 296 296 292 274 268 268
352 135 73 103 262 28 20 204 116 49 88 70 43 65 124 107 84 127 130 123 168 162 171 137 151 137 137 129 109 74 91 98 87 58 55 39 48 33 40 35 29 14 9 3 360 359 353 346 345 348 347 346 356 358 0 359 357 350 336 335 331 328 325 325 323 318 313 311 309 308 310 308 307 306 302 302 292 278 278 283 293 290 290 286 269 265
262 124 81 140 239 121 258 152 161 180 148 163 132 32 37 59 107 115 133 131 144 141 133 131 138 137 135 133 120 130 124 106 76 57 30 18 12 9 18 17 12 10 2 356 355 347 349 346 347 345 344 338 343 351 347 351 351 339 331 327 322 322 325 325 324 319 319 321 318 314 314 311 309 312 310 305 299 287 279 275 275 276 278 275 272 267
290 184 86 191 167 166 252 154 184 63 39 157 190 158 157 129 88 64 87 104 114 103 103 115 107 103 120 105 124 125 120 106 114 81 55 17 12 2 17 16 359 351 356 354 341 348 345 346 343 338 336 331 334 339 340 340 339 336 331 324 323 330 331 328 326 322 318 316 312 308 310 307 304 306 305 304 303 297 298 285 263 267 271 275 270 269
206 123 212 168 152 114 15 8 95 101 160 234 311 321 70 140 134 118 106 100 96 108 102 77 63 94 94 96 92 107 112 114 91 99 114 205 279 24 22 1 344 337 331 336 345 355 343 341 336 331 326 318 325 328 327 323 327 329 322 327 343 347 343 334 327 319 313 311 311 307 307 302 302 304 303 302 300 286 267 277 290 281 275 265 253 242
96 188 193 96 94 179 191 190 160 137 242 211 212 198 168 159 138 127 123 113 131 128 134 117 97 73 72 76 96 117 136 132 127 123 161 176 118 62 24 349 334 325 325 329 345 335 337 335 324 317 317 313 319 319 311 319 328 331 342 354 356 356 347 337 328 321 318 319 314 311 311 309 304 302 300 299 300 304 300 276 254 256 274 285 276 251
181 193 141 166 179 219 227 174 185 188 181 233 187 164 156 149 148 148 159 155 148 130 142 140 136 131 117 100 82 114 120 128 133 122 165 165 93 49 8 336 326 323 322 339 332 331 332 323 320 316 317 317 320 311 317 328 347 347 352 352 353 350 340 334 325 316 312 317 315 314 311 307 305 304 300 297 297 298 296 301 300 276 255 256 271 271